Location: Bailleul
(50.3375°N, 2.8513°E)
Time: 17:41:28
(UTC+00:00)

Cosmos 2016 Rocket - Pass Details

Date: 30 October 2021
Orbit: 946 x 1001 km, 83.0° (Epoch: 26 November)

Event Time Altitude Azimuth Distance (km) Brightness Sun altitude
Rises 04:36:10 0° 356° (N) 3,630 7.0 -19.5°
Reaches altitude 10° 04:39:10 10° 10° (N) 2,681 6.4 -19.1°
Maximum altitude 04:44:07 25° 64° (ENE) 1,821 6.1 -18.3°
Drops below altitude 10° 04:49:04 10° 118° (ESE) 2,682 7.3 -17.5°
Sets 04:52:03 0° 132° (SE) 3,631 7.8 -17.0°
